Location: Aldenham
(51.6667°N, 0.3500°W)
Time: 06:28:43
(UTC+00:00)

Cosmos 1862 - Pass Details

Date: 18 November 2025
Orbit: 473 x 484 km, 82.5° (Epoch: 16 December)

Event Time Altitude Azimuth Distance (km) Brightness Sun altitude
Rises 17:51:50 0° 351° (N) 2,544 6.7 -15.9°
Reaches altitude 10° 17:53:57 10° 354° (N) 1,662 5.7 -16.2°
Maximum altitude 17:57:34 66° 78° (ENE) 528 2.9 -16.8°
Drops below altitude 10° 18:01:10 10° 161° (SSE) 1,655 5.7 -17.3°
Sets 18:03:16 0° 164° (SSE) 2,532 6.6 -17.6°
